Home   Weather   Strasbourg   Past weeks

Flag for France Past Weather in Strasbourg, Alsace, France — Yesterday and Last 2 Weeks

Now
77 °F

Sunny.


Feels Like: 78 °F
Forecast: 55 / 67 °F
Wind: 5 mph from South

Location: Strasbourg Airport

Current Time: Sep 25, 2016 at 5:49:04 PM

Latest Report: Sep 25, 2016 at 5:30 PM


Visibility: 10 mi

Pressure: 30.07 "Hg

Humidity: 44%

Dew Point: 54 °F

Location of StrasbourgLocation

Past Weather in Strasbourg — Graph

°F

Strasbourg Temperature Yesterday

Maximum temperature yesterday: 75 °F (at 3:30 PM)
Minimum temperature yesterday: 43 °F (at 7:00 AM)
Average temperature yesterday: 58 °F

High & Low Weather Summary for the Past Weeks

 TemperatureHumidityPressure
High90 °F (Sep 12, 4:30 PM)100% (Sep 13, 6:30 AM)30.30 "Hg (Sep 13, 6:30 AM)
Low43 °F (Sep 24, 7:00 AM)33% (Sep 10, 5:00 PM)29.77 "Hg (Sep 15, 3:00 AM)
Average64 °F74%30.04 "Hg
* Reported Sep 10 4:00 PM — Sep 25 4:30 PM, Strasbourg, Weather by CustomWeather, © 2016

Note: Actual official high and low records may vary slightly from our data, if they occured in-between our weather recording intervals... More about our weather records

Advertising

Strasbourg Weather History for the Previous 24 Hours

Scroll right to see more
 ConditionsComfort  
Time TempWeatherWind HumidityBarometerVisibility
4:30 PM
Sun, Sep 25
79 °FPassing clouds.5 mph42%30.07 "HgN/A
4:00 PM79 °FPassing clouds.5 mph42%30.07 "HgN/A
3:30 PM79 °FPassing clouds.6 mph42%30.07 "HgN/A
3:00 PM79 °FPassing clouds.6 mph42%30.07 "HgN/A
2:30 PM77 °FPassing clouds.7 mph44%30.09 "HgN/A
2:00 PM77 °FPassing clouds.6 mph44%30.09 "HgN/A
1:30 PM75 °FPassing clouds.5 mph50%30.09 "HgN/A
1:00 PM73 °FPassing clouds.6 mph53%30.09 "HgN/A
12:30 PM72 °FPassing clouds.7 mph57%30.12 "HgN/A
12:00 PM70 °FPassing clouds.7 mph60%30.12 "HgN/A
11:30 AM68 °FPassing clouds.6 mph64%30.12 "HgN/A
11:00 AM64 °FPassing clouds.5 mph73%30.15 "HgN/A
10:30 AM61 °FSunny.2 mph77%30.15 "Hg10 mi
10:00 AM57 °FSunny.2 mph82%30.15 "Hg10 mi
9:30 AM55 °FClear.2 mph88%30.15 "Hg6 mi
9:00 AM54 °FClear.No wind94%30.15 "Hg6 mi
8:30 AM50 °FClear.No wind100%30.15 "Hg5 mi
8:00 AM46 °FSunny.1 mph93%30.15 "Hg10 mi
7:30 AM45 °FSunny.1 mph100%30.12 "Hg10 mi
7:00 AM45 °FClear.3 mph100%30.12 "Hg10 mi
6:30 AM46 °FPassing clouds.3 mph93%30.12 "Hg6 mi
6:00 AM46 °FPassing clouds.1 mph100%30.12 "HgN/A
5:30 AM46 °FClear.1 mph93%30.12 "Hg4 mi
5:00 AM46 °FClear.No wind93%30.12 "Hg4 mi
4:30 AM46 °FFog.1 mph93%30.12 "Hg3 mi
4:00 AM46 °FClear.2 mph93%30.15 "Hg6 mi
3:30 AM48 °FClear.5 mph94%30.15 "Hg10 mi
3:00 AM48 °FClear.3 mph94%30.15 "Hg10 mi
2:30 AM48 °FClear.No wind94%30.15 "Hg10 mi
2:00 AM48 °FClear.3 mph94%30.15 "Hg10 mi
1:30 AM48 °FClear.No wind94%30.15 "Hg10 mi
1:00 AM48 °FClear.2 mph94%30.15 "Hg10 mi
12:30 AM48 °FClear.2 mph94%30.15 "Hg10 mi
12:00 AM50 °FClear.2 mph88%30.15 "Hg10 mi
11:30 PM
Sat, Sep 24
52 °FClear.3 mph88%30.15 "Hg10 mi
11:00 PM54 °FClear.1 mph88%30.15 "Hg10 mi
10:30 PM54 °FClear.2 mph88%30.15 "Hg10 mi
10:00 PM55 °FClear.3 mph82%30.15 "Hg10 mi
9:30 PM55 °FClear.3 mph88%30.15 "Hg10 mi
9:00 PM57 °FClear.5 mph82%30.15 "Hg10 mi
8:30 PM59 °FClear.1 mph77%30.15 "Hg10 mi
8:00 PM61 °FClear.No wind77%30.15 "Hg10 mi
7:30 PM63 °FClear.2 mph68%30.15 "HgN/A
7:00 PM68 °FSunny.2 mph53%30.15 "Hg10 mi
6:30 PM73 °FSunny.2 mph44%30.18 "Hg10 mi
6:00 PM73 °FSunny.3 mph41%30.18 "Hg10 mi
5:30 PM75 °FPassing clouds.5 mph39%30.18 "HgN/A
5:00 PM75 °FPassing clouds.5 mph41%30.18 "HgN/A
Weather by CustomWeather, © 2016

See weather overviewHow to use our weather pages